owner,sensor,date,latitude,longitude,vertical_datum,mass_concentration_of_oxygen_in_sea_water,qcFlag 
SCCF RECON,ioos:station:SCCF:18:1,2013-11-01T00:00:00Z,26.6955,-81.8138,1.78,5.18,1111122 
SCCF RECON,ioos:station:SCCF:18:1,2013-11-01T01:00:00Z,26.6955,-81.8138,1.76,5.02,1111122 
SCCF RECON,ioos:station:SCCF:18:1,2013-11-01T02:00:00Z,26.6955,-81.8138,1.78,5.24,1111122 
SCCF RECON,ioos:station:SCCF:18:1,2013-11-01T03:00:00Z,26.6955,-81.8138,1.86,5.25,1111122 
SCCF RECON,ioos:station:SCCF:18:1,2013-11-01T04:00:00Z,26.6955,-81.8138,1.947,5.13,1111122 
SCCF RECON,ioos:station:SCCF:18:1,2013-11-01T05:00:00Z,26.6955,-81.8138,2.0,5.15,1111122 
SCCF RECON,ioos:station:SCCF:18:1,2013-11-01T06:00:00Z,26.6955,-81.8138,2.05,5.5,1111122 
SCCF RECON,ioos:station:SCCF:18:1,2013-11-01T07:00:00Z,26.6955,-81.8138,2.09,5.4,1111122 
SCCF RECON,ioos:station:SCCF:18:1,2013-11-01T08:00:00Z,26.6955,-81.8138,2.09,5.26,1111122 
SCCF RECON,ioos:station:SCCF:18:1,2013-11-01T09:00:00Z,26.6955,-81.8138,2.02,4.99,1111122 
SCCF RECON,ioos:station:SCCF:18:1,2013-11-01T10:00:00Z,26.6955,-81.8138,1.93,5.02,1111122 
SCCF RECON,ioos:station:SCCF:18:1,2013-11-01T11:00:00Z,26.6955,-81.8138,1.87,4.93,1111122 
SCCF RECON,ioos:station:SCCF:18:1,2013-11-01T12:00:00Z,26.6955,-81.8138,1.812,4.8,1111122 
SCCF RECON,ioos:station:SCCF:18:1,2013-11-01T13:00:00Z,26.6955,-81.8138,1.76,4.72,1111122 
SCCF RECON,ioos:station:SCCF:18:1,2013-11-01T14:00:00Z,26.6955,-81.8138,1.7,4.63,1111122 
SCCF RECON,ioos:station:SCCF:18:1,2013-11-01T15:00:00Z,26.6955,-81.8138,1.7,4.66,1111122 
SCCF RECON,ioos:station:SCCF:18:1,2013-11-01T16:00:00Z,26.6955,-81.8138,1.779,4.77,1111122 
SCCF RECON,ioos:station:SCCF:18:1,2013-11-01T17:00:00Z,26.6955,-81.8138,1.878,4.85,1111122 
SCCF RECON,ioos:station:SCCF:18:1,2013-11-01T18:00:00Z,26.6955,-81.8138,1.95,5.0,1111122 
SCCF RECON,ioos:station:SCCF:18:1,2013-11-01T19:00:00Z,26.6955,-81.8138,1.99,5.12,1111122 
SCCF RECON,ioos:station:SCCF:18:1,2013-11-01T20:00:00Z,26.6955,-81.8138,2.02,5.08,1111122 
SCCF RECON,ioos:station:SCCF:18:1,2013-11-01T21:00:00Z,26.6955,-81.8138,2.03,5.2,1111122 
SCCF RECON,ioos:station:SCCF:18:1,2013-11-01T22:00:00Z,26.6955,-81.8138,1.97,5.04,1111122 
SCCF RECON,ioos:station:SCCF:18:1,2013-11-01T23:00:00Z,26.6955,-81.8138,1.899,5.06,1111122 
SCCF RECON,ioos:station:SCCF:18:1,2013-11-02T00:00:00Z,26.6955,-81.8138,1.83,4.96,1111122 
SCCF RECON,ioos:station:SCCF:18:1,2013-11-02T01:00:00Z,26.6955,-81.8138,1.78,4.78,1111122 
SCCF RECON,ioos:station:SCCF:18:1,2013-11-02T02:00:00Z,26.6955,-81.8138,1.76,5.1,1111122 
SCCF RECON,ioos:station:SCCF:18:1,2013-11-02T03:00:00Z,26.6955,-81.8138,1.784,4.58,1111122 
SCCF RECON,ioos:station:SCCF:18:1,2013-11-02T04:00:00Z,26.6955,-81.8138,1.879,4.8,1111122 
SCCF RECON,ioos:station:SCCF:18:1,2013-11-02T05:00:00Z,26.6955,-81.8138,1.97,4.61,1111122 
SCCF RECON,ioos:station:SCCF:18:1,2013-11-02T06:00:00Z,26.6955,-81.8138,2.03,4.95,1111122 
SCCF RECON,ioos:station:SCCF:18:1,2013-11-02T07:00:00Z,26.6955,-81.8138,2.07,5.09,1111122 
SCCF RECON,ioos:station:SCCF:18:1,2013-11-02T08:00:00Z,26.6955,-81.8138,2.09,4.87,1111122 
SCCF RECON,ioos:station:SCCF:18:1,2013-11-02T09:00:00Z,26.6955,-81.8138,2.05,4.65,1111122 
SCCF RECON,ioos:station:SCCF:18:1,2013-11-02T10:00:00Z,26.6955,-81.8138,1.97,4.73,1111122 
SCCF RECON,ioos:station:SCCF:18:1,2013-11-02T11:00:00Z,26.6955,-81.8138,1.89,4.73,1111122 
SCCF RECON,ioos:station:SCCF:18:1,2013-11-02T12:00:00Z,26.6955,-81.8138,1.83,4.71,1111122 
SCCF RECON,ioos:station:SCCF:18:1,2013-11-02T13:00:00Z,26.6955,-81.8138,1.78,4.65,1111122 
SCCF RECON,ioos:station:SCCF:18:1,2013-11-02T14:00:00Z,26.6955,-81.8138,1.73,4.59,1111122 
SCCF RECON,ioos:station:SCCF:18:1,2013-11-02T15:00:00Z,26.6955,-81.8138,1.71,4.68,1111122 
SCCF RECON,ioos:station:SCCF:18:1,2013-11-02T16:00:00Z,26.6955,-81.8138,1.746,4.78,1111122 
SCCF RECON,ioos:station:SCCF:18:1,2013-11-02T17:00:00Z,26.6955,-81.8138,1.83,4.81,1111122 
SCCF RECON,ioos:station:SCCF:18:1,2013-11-02T18:00:00Z,26.6955,-81.8138,1.89,4.9,1111122 
SCCF RECON,ioos:station:SCCF:18:1,2013-11-02T19:00:00Z,26.6955,-81.8138,1.901,4.85,1111122 
SCCF RECON,ioos:station:SCCF:18:1,2013-11-02T20:00:00Z,26.6955,-81.8138,1.94,4.92,1111122 
SCCF RECON,ioos:station:SCCF:18:1,2013-11-02T21:00:00Z,26.6955,-81.8138,1.959,4.88,1111122 
SCCF RECON,ioos:station:SCCF:18:1,2013-11-02T22:00:00Z,26.6955,-81.8138,1.89,4.88,1111122 
SCCF RECON,ioos:station:SCCF:18:1,2013-11-02T23:00:00Z,26.6955,-81.8138,1.811,4.88,1111122 
SCCF RECON,ioos:station:SCCF:18:1,2013-11-03T00:00:00Z,26.6955,-81.8138,1.76,4.47,1111122 
SCCF RECON,ioos:station:SCCF:18:1,2013-11-03T01:00:00Z,26.6955,-81.8138,1.72,4.88,1111122 
SCCF RECON,ioos:station:SCCF:18:1,2013-11-03T02:00:00Z,26.6955,-81.8138,1.68,4.77,1111122 
SCCF RECON,ioos:station:SCCF:18:1,2013-11-03T03:00:00Z,26.6955,-81.8138,1.64,4.78,1111122 
SCCF RECON,ioos:station:SCCF:18:1,2013-11-03T04:00:00Z,26.6955,-81.8138,1.65,4.71,1111122 
SCCF RECON,ioos:station:SCCF:18:1,2013-11-03T05:00:00Z,26.6955,-81.8138,1.72,4.56,1111122 
SCCF RECON,ioos:station:SCCF:18:1,2013-11-03T06:00:00Z,26.6955,-81.8138,1.8,4.47,1111122 
SCCF RECON,ioos:station:SCCF:18:1,2013-11-03T07:00:00Z,26.6955,-81.8138,1.88,4.58,1111122 
SCCF RECON,ioos:station:SCCF:18:1,2013-11-03T08:00:00Z,26.6955,-81.8138,1.91,4.59,1111122 
SCCF RECON,ioos:station:SCCF:18:1,2013-11-03T09:00:00Z,26.6955,-81.8138,1.9,4.59,1111122 
SCCF RECON,ioos:station:SCCF:18:1,2013-11-03T10:00:00Z,26.6955,-81.8138,1.82,4.7,1111122 
SCCF RECON,ioos:station:SCCF:18:1,2013-11-03T11:00:00Z,26.6955,-81.8138,1.75,4.61,1111122 
SCCF RECON,ioos:station:SCCF:18:1,2013-11-03T12:00:00Z,26.6955,-81.8138,1.69,4.57,1111122 
SCCF RECON,ioos:station:SCCF:18:1,2013-11-03T13:00:00Z,26.6955,-81.8138,1.64,4.61,1111122 
SCCF RECON,ioos:station:SCCF:18:1,2013-11-03T14:00:00Z,26.6955,-81.8138,1.59,4.64,1111122 
SCCF RECON,ioos:station:SCCF:18:1,2013-11-03T15:00:00Z,26.6955,-81.8138,1.52,4.77,1111122 
SCCF RECON,ioos:station:SCCF:18:1,2013-11-03T16:00:00Z,26.6955,-81.8138,1.452,4.79,1111122 
SCCF RECON,ioos:station:SCCF:18:1,2013-11-03T17:00:00Z,26.6955,-81.8138,1.41,4.73,1111122 
SCCF RECON,ioos:station:SCCF:18:1,2013-11-03T18:00:00Z,26.6955,-81.8138,1.39,4.91,1111122 
SCCF RECON,ioos:station:SCCF:18:1,2013-11-03T19:00:00Z,26.6955,-81.8138,1.44,4.95,1111122 
SCCF RECON,ioos:station:SCCF:18:1,2013-11-03T20:00:00Z,26.6955,-81.8138,1.516,5.63,1111122 
SCCF RECON,ioos:station:SCCF:18:1,2013-11-03T21:00:00Z,26.6955,-81.8138,1.57,5.26,1111122 
SCCF RECON,ioos:station:SCCF:18:1,2013-11-03T22:00:00Z,26.6955,-81.8138,1.6,5.28,1111122 
SCCF RECON,ioos:station:SCCF:18:1,2013-11-03T23:00:00Z,26.6955,-81.8138,1.61,5.51,1111122 
SCCF RECON,ioos:station:SCCF:18:1,2013-11-04T00:00:00Z,26.6955,-81.8138,1.591,5.56,1111122 
SCCF RECON,ioos:station:SCCF:18:1,2013-11-04T01:00:00Z,26.6955,-81.8138,1.56,5.28,1111122 
SCCF RECON,ioos:station:SCCF:18:1,2013-11-04T02:00:00Z,26.6955,-81.8138,1.53,5.35,1111122 
SCCF RECON,ioos:station:SCCF:18:1,2013-11-04T03:00:00Z,26.6955,-81.8138,1.49,5.3,1111122 
SCCF RECON,ioos:station:SCCF:18:1,2013-11-04T04:00:00Z,26.6955,-81.8138,1.49,5.37,1111122 
SCCF RECON,ioos:station:SCCF:18:1,2013-11-04T05:00:00Z,26.6955,-81.8138,1.554,5.41,1111122 
SCCF RECON,ioos:station:SCCF:18:1,2013-11-04T06:00:00Z,26.6955,-81.8138,1.61,5.49,1111122 
SCCF RECON,ioos:station:SCCF:18:1,2013-11-04T07:00:00Z,26.6955,-81.8138,1.69,5.59,1111122 
SCCF RECON,ioos:station:SCCF:18:1,2013-11-04T08:00:00Z,26.6955,-81.8138,1.75,5.66,1111122 
SCCF RECON,ioos:station:SCCF:18:1,2013-11-04T09:00:00Z,26.6955,-81.8138,1.78,5.59,1111122 
SCCF RECON,ioos:station:SCCF:18:1,2013-11-04T10:00:00Z,26.6955,-81.8138,1.75,5.49,1111122 
SCCF RECON,ioos:station:SCCF:18:1,2013-11-04T11:00:00Z,26.6955,-81.8138,1.68,5.46,1111122 
SCCF RECON,ioos:station:SCCF:18:1,2013-11-04T12:00:00Z,26.6955,-81.8138,1.63,5.4,1111122 
SCCF RECON,ioos:station:SCCF:18:1,2013-11-04T13:00:00Z,26.6955,-81.8138,1.58,5.34,1111122 
SCCF RECON,ioos:station:SCCF:18:1,2013-11-04T14:00:00Z,26.6955,-81.8138,1.54,5.25,1111122 
SCCF RECON,ioos:station:SCCF:18:1,2013-11-04T15:00:00Z,26.6955,-81.8138,1.48,5.07,1111122 
SCCF RECON,ioos:station:SCCF:18:1,2013-11-04T16:00:00Z,26.6955,-81.8138,1.414,5.22,1111122 
SCCF RECON,ioos:station:SCCF:18:1,2013-11-04T17:00:00Z,26.6955,-81.8138,1.364,5.27,1111122 
SCCF RECON,ioos:station:SCCF:18:1,2013-11-04T18:00:00Z,26.6955,-81.8138,1.329,5.53,1111122 
SCCF RECON,ioos:station:SCCF:18:1,2013-11-04T19:00:00Z,26.6955,-81.8138,1.34,5.45,1111122 
SCCF RECON,ioos:station:SCCF:18:1,2013-11-04T20:00:00Z,26.6955,-81.8138,1.403,5.89,1111122 
SCCF RECON,ioos:station:SCCF:18:1,2013-11-04T21:00:00Z,26.6955,-81.8138,1.466,5.93,1111122 
SCCF RECON,ioos:station:SCCF:18:1,2013-11-04T22:00:00Z,26.6955,-81.8138,1.49,6.1,1111122 
SCCF RECON,ioos:station:SCCF:18:1,2013-11-04T23:00:00Z,26.6955,-81.8138,1.54,6.13,1111122 
SCCF RECON,ioos:station:SCCF:18:1,2013-11-05T00:00:00Z,26.6955,-81.8138,1.58,5.87,1111122 
SCCF RECON,ioos:station:SCCF:18:1,2013-11-05T01:00:00Z,26.6955,-81.8138,1.571,6.06,1111122 
SCCF RECON,ioos:station:SCCF:18:1,2013-11-05T02:00:00Z,26.6955,-81.8138,1.56,5.97,1111122 
SCCF RECON,ioos:station:SCCF:18:1,2013-11-05T03:00:00Z,26.6955,-81.8138,1.52,5.97,1111122 
SCCF RECON,ioos:station:SCCF:18:1,2013-11-05T04:00:00Z,26.6955,-81.8138,1.5,5.95,1111122 
SCCF RECON,ioos:station:SCCF:18:1,2013-11-05T05:00:00Z,26.6955,-81.8138,1.53,6.05,1111122 
SCCF RECON,ioos:station:SCCF:18:1,2013-11-05T06:00:00Z,26.6955,-81.8138,1.59,5.96,1111122 
SCCF RECON,ioos:station:SCCF:18:1,2013-11-05T07:00:00Z,26.6955,-81.8138,1.67,5.98,1111122 
SCCF RECON,ioos:station:SCCF:18:1,2013-11-05T08:00:00Z,26.6955,-81.8138,1.71,6.24,1111122 
SCCF RECON,ioos:station:SCCF:18:1,2013-11-05T09:00:00Z,26.6955,-81.8138,1.76,6.2,1111122 
SCCF RECON,ioos:station:SCCF:18:1,2013-11-05T10:00:00Z,26.6955,-81.8138,1.79,6.14,1111122 
SCCF RECON,ioos:station:SCCF:18:1,2013-11-05T11:00:00Z,26.6955,-81.8138,1.749,6.02,1111122 
SCCF RECON,ioos:station:SCCF:18:1,2013-11-05T12:00:00Z,26.6955,-81.8138,1.68,5.94,1111122 
SCCF RECON,ioos:station:SCCF:18:1,2013-11-05T13:00:00Z,26.6955,-81.8138,1.63,5.96,1111122 
SCCF RECON,ioos:station:SCCF:18:1,2013-11-05T14:00:00Z,26.6955,-81.8138,1.58,5.96,1111122 
SCCF RECON,ioos:station:SCCF:18:1,2013-11-05T15:00:00Z,26.6955,-81.8138,1.54,5.91,1111122 
SCCF RECON,ioos:station:SCCF:18:1,2013-11-05T16:00:00Z,26.6955,-81.8138,1.48,5.93,1111122 
SCCF RECON,ioos:station:SCCF:18:1,2013-11-05T17:00:00Z,26.6955,-81.8138,1.42,5.96,1111122 
SCCF RECON,ioos:station:SCCF:18:1,2013-11-05T18:00:00Z,26.6955,-81.8138,1.364,6.06,1111122 
SCCF RECON,ioos:station:SCCF:18:1,2013-11-05T19:00:00Z,26.6955,-81.8138,1.36,6.16,1111122 
SCCF RECON,ioos:station:SCCF:18:1,2013-11-05T20:00:00Z,26.6955,-81.8138,1.41,6.29,1111122 
SCCF RECON,ioos:station:SCCF:18:1,2013-11-05T21:00:00Z,26.6955,-81.8138,1.48,6.3,1111122 
SCCF RECON,ioos:station:SCCF:18:1,2013-11-05T22:00:00Z,26.6955,-81.8138,1.54,6.36,1111122 
SCCF RECON,ioos:station:SCCF:18:1,2013-11-05T23:00:00Z,26.6955,-81.8138,1.63,6.34,1111122 
SCCF RECON,ioos:station:SCCF:18:1,2013-11-06T00:00:00Z,26.6955,-81.8138,1.66,6.18,1111122 
SCCF RECON,ioos:station:SCCF:18:1,2013-11-06T01:00:00Z,26.6955,-81.8138,1.67,6.2,1111122 
SCCF RECON,ioos:station:SCCF:18:1,2013-11-06T02:00:00Z,26.6955,-81.8138,1.64,6.26,1111122 
SCCF RECON,ioos:station:SCCF:18:1,2013-11-06T03:00:00Z,26.6955,-81.8138,1.6,6.27,1111122 
SCCF RECON,ioos:station:SCCF:18:1,2013-11-06T04:00:00Z,26.6955,-81.8138,1.58,6.36,1111122 
SCCF RECON,ioos:station:SCCF:18:1,2013-11-06T05:00:00Z,26.6955,-81.8138,1.598,6.22,1111122 
SCCF RECON,ioos:station:SCCF:18:1,2013-11-06T06:00:00Z,26.6955,-81.8138,1.65,6.34,1111122 
SCCF RECON,ioos:station:SCCF:18:1,2013-11-06T07:00:00Z,26.6955,-81.8138,1.736,6.34,1111122 
SCCF RECON,ioos:station:SCCF:18:1,2013-11-06T08:00:00Z,26.6955,-81.8138,1.81,6.34,1111122 
SCCF RECON,ioos:station:SCCF:18:1,2013-11-06T09:00:00Z,26.6955,-81.8138,1.87,6.41,1111122 
SCCF RECON,ioos:station:SCCF:18:1,2013-11-06T10:00:00Z,26.6955,-81.8138,1.91,6.4,1111122 
SCCF RECON,ioos:station:SCCF:18:1,2013-11-06T11:00:00Z,26.6955,-81.8138,1.94,6.31,1111122 
SCCF RECON,ioos:station:SCCF:18:1,2013-11-06T12:00:00Z,26.6955,-81.8138,1.91,6.31,1111122 
SCCF RECON,ioos:station:SCCF:18:1,2013-11-06T13:00:00Z,26.6955,-81.8138,1.84,6.2,1111122 
SCCF RECON,ioos:station:SCCF:18:1,2013-11-06T14:00:00Z,26.6955,-81.8138,1.77,6.2,1111122 
SCCF RECON,ioos:station:SCCF:18:1,2013-11-06T15:00:00Z,26.6955,-81.8138,1.71,6.19,1111122 
SCCF RECON,ioos:station:SCCF:18:1,2013-11-06T16:00:00Z,26.6955,-81.8138,1.65,6.05,1111122 
SCCF RECON,ioos:station:SCCF:18:1,2013-11-06T17:00:00Z,26.6955,-81.8138,1.6,6.12,1111122 
SCCF RECON,ioos:station:SCCF:18:1,2013-11-06T18:00:00Z,26.6955,-81.8138,1.55,6.13,1111122 
SCCF RECON,ioos:station:SCCF:18:1,2013-11-06T19:00:00Z,26.6955,-81.8138,1.53,6.15,1111122 
SCCF RECON,ioos:station:SCCF:18:1,2013-11-06T20:00:00Z,26.6955,-81.8138,1.55,6.25,1111122 
SCCF RECON,ioos:station:SCCF:18:1,2013-11-06T21:00:00Z,26.6955,-81.8138,1.64,6.27,1111122 
SCCF RECON,ioos:station:SCCF:18:1,2013-11-06T22:00:00Z,26.6955,-81.8138,1.71,6.27,1111122 
SCCF RECON,ioos:station:SCCF:18:1,2013-11-06T23:00:00Z,26.6955,-81.8138,1.78,6.28,1111122 
SCCF RECON,ioos:station:SCCF:18:1,2013-11-07T00:00:00Z,26.6955,-81.8138,1.84,6.23,1111122 
SCCF RECON,ioos:station:SCCF:18:1,2013-11-07T01:00:00Z,26.6955,-81.8138,1.87,6.22,1111122 
SCCF RECON,ioos:station:SCCF:18:1,2013-11-07T02:00:00Z,26.6955,-81.8138,1.86,6.23,1111122 
SCCF RECON,ioos:station:SCCF:18:1,2013-11-07T03:00:00Z,26.6955,-81.8138,1.85,6.2,1111122 
SCCF RECON,ioos:station:SCCF:18:1,2013-11-07T04:00:00Z,26.6955,-81.8138,1.81,6.12,1111122 
SCCF RECON,ioos:station:SCCF:18:1,2013-11-07T05:00:00Z,26.6955,-81.8138,1.79,6.09,1111122 
SCCF RECON,ioos:station:SCCF:18:1,2013-11-07T06:00:00Z,26.6955,-81.8138,1.804,6.08,1111122 
SCCF RECON,ioos:station:SCCF:18:1,2013-11-07T07:00:00Z,26.6955,-81.8138,1.871,6.11,1111122 
SCCF RECON,ioos:station:SCCF:18:1,2013-11-07T08:00:00Z,26.6955,-81.8138,1.95,6.05,1111122 
SCCF RECON,ioos:station:SCCF:18:1,2013-11-07T09:00:00Z,26.6955,-81.8138,2.01,6.02,1111122 
SCCF RECON,ioos:station:SCCF:18:1,2013-11-07T10:00:00Z,26.6955,-81.8138,2.04,6.08,1111122 
SCCF RECON,ioos:station:SCCF:18:1,2013-11-07T11:00:00Z,26.6955,-81.8138,2.07,6.08,1111122 
SCCF RECON,ioos:station:SCCF:18:1,2013-11-07T12:00:00Z,26.6955,-81.8138,2.07,5.97,1111122 
SCCF RECON,ioos:station:SCCF:18:1,2013-11-07T13:00:00Z,26.6955,-81.8138,2.0,5.98,1111122 
SCCF RECON,ioos:station:SCCF:18:1,2013-11-07T14:00:00Z,26.6955,-81.8138,1.92,6.02,1111122 
SCCF RECON,ioos:station:SCCF:18:1,2013-11-07T15:00:00Z,26.6955,-81.8138,1.86,5.95,1111122 
SCCF RECON,ioos:station:SCCF:18:1,2013-11-07T16:00:00Z,26.6955,-81.8138,1.8,5.89,1111122 
SCCF RECON,ioos:station:SCCF:18:1,2013-11-07T17:00:00Z,26.6955,-81.8138,1.74,5.82,1111122 
SCCF RECON,ioos:station:SCCF:18:1,2013-11-07T18:00:00Z,26.6955,-81.8138,1.67,5.81,1111122 
SCCF RECON,ioos:station:SCCF:18:1,2013-11-07T19:00:00Z,26.6955,-81.8138,1.601,5.66,1111122 
SCCF RECON,ioos:station:SCCF:18:1,2013-11-07T20:00:00Z,26.6955,-81.8138,1.57,5.67,1111122 
SCCF RECON,ioos:station:SCCF:18:1,2013-11-07T21:00:00Z,26.6955,-81.8138,1.625,5.78,1111122 
SCCF RECON,ioos:station:SCCF:18:1,2013-11-07T22:00:00Z,26.6955,-81.8138,1.7,5.64,1111122 
SCCF RECON,ioos:station:SCCF:18:1,2013-11-07T23:00:00Z,26.6955,-81.8138,1.768,5.75,1111122 
SCCF RECON,ioos:station:SCCF:18:1,2013-11-08T00:00:00Z,26.6955,-81.8138,1.82,5.83,1111122 
SCCF RECON,ioos:station:SCCF:18:1,2013-11-08T01:00:00Z,26.6955,-81.8138,1.86,5.65,1111122 
SCCF RECON,ioos:station:SCCF:18:1,2013-11-08T02:00:00Z,26.6955,-81.8138,1.87,5.71,1111122 
SCCF RECON,ioos:station:SCCF:18:1,2013-11-08T03:00:00Z,26.6955,-81.8138,1.82,5.5,1111122 
SCCF RECON,ioos:station:SCCF:18:1,2013-11-08T04:00:00Z,26.6955,-81.8138,1.76,5.67,1111122 
SCCF RECON,ioos:station:SCCF:18:1,2013-11-08T05:00:00Z,26.6955,-81.8138,1.71,5.56,1111122 
SCCF RECON,ioos:station:SCCF:18:1,2013-11-08T06:00:00Z,26.6955,-81.8138,1.7,5.6,1111122 
SCCF RECON,ioos:station:SCCF:18:1,2013-11-08T07:00:00Z,26.6955,-81.8138,1.7,5.59,1111122 
SCCF RECON,ioos:station:SCCF:18:1,2013-11-08T08:00:00Z,26.6955,-81.8138,1.75,5.5,1111122 
SCCF RECON,ioos:station:SCCF:18:1,2013-11-08T09:00:00Z,26.6955,-81.8138,1.83,5.41,1111122 
SCCF RECON,ioos:station:SCCF:18:1,2013-11-08T10:00:00Z,26.6955,-81.8138,1.898,5.48,1111122 
SCCF RECON,ioos:station:SCCF:18:1,2013-11-08T11:00:00Z,26.6955,-81.8138,1.94,5.44,1111122 
SCCF RECON,ioos:station:SCCF:18:1,2013-11-08T12:00:00Z,26.6955,-81.8138,1.95,5.46,1111122 
SCCF RECON,ioos:station:SCCF:18:1,2013-11-08T13:00:00Z,26.6955,-81.8138,1.91,5.5,1111122 
SCCF RECON,ioos:station:SCCF:18:1,2013-11-08T14:00:00Z,26.6955,-81.8138,1.85,5.53,1111122 
SCCF RECON,ioos:station:SCCF:18:1,2013-11-08T15:00:00Z,26.6955,-81.8138,1.78,5.36,1111122 
SCCF RECON,ioos:station:SCCF:18:1,2013-11-08T16:00:00Z,26.6955,-81.8138,1.71,5.43,1111122 
SCCF RECON,ioos:station:SCCF:18:1,2013-11-08T17:00:00Z,26.6955,-81.8138,1.66,5.56,1111122 
SCCF RECON,ioos:station:SCCF:18:1,2013-11-08T18:00:00Z,26.6955,-81.8138,1.6,5.45,1111122 
SCCF RECON,ioos:station:SCCF:18:1,2013-11-08T19:00:00Z,26.6955,-81.8138,1.54,5.47,1111122 
SCCF RECON,ioos:station:SCCF:18:1,2013-11-08T20:00:00Z,26.6955,-81.8138,1.49,5.49,1111122 
SCCF RECON,ioos:station:SCCF:18:1,2013-11-08T21:00:00Z,26.6955,-81.8138,1.45,5.46,1111122 
SCCF RECON,ioos:station:SCCF:18:1,2013-11-08T22:00:00Z,26.6955,-81.8138,1.46,5.44,1111122 
SCCF RECON,ioos:station:SCCF:18:1,2013-11-08T23:00:00Z,26.6955,-81.8138,1.52,5.51,1111122 
SCCF RECON,ioos:station:SCCF:18:1,2013-11-09T00:00:00Z,26.6955,-81.8138,1.58,5.54,1111122 
SCCF RECON,ioos:station:SCCF:18:1,2013-11-09T01:00:00Z,26.6955,-81.8138,1.62,5.61,1111122 
SCCF RECON,ioos:station:SCCF:18:1,2013-11-09T02:00:00Z,26.6955,-81.8138,1.64,5.69,1111122 
SCCF RECON,ioos:station:SCCF:18:1,2013-11-09T03:00:00Z,26.6955,-81.8138,1.64,5.63,1111122 
SCCF RECON,ioos:station:SCCF:18:1,2013-11-09T04:00:00Z,26.6955,-81.8138,1.61,5.55,1111122 
SCCF RECON,ioos:station:SCCF:18:1,2013-11-09T05:00:00Z,26.6955,-81.8138,1.59,5.51,1111122 
SCCF RECON,ioos:station:SCCF:18:1,2013-11-09T06:00:00Z,26.6955,-81.8138,1.54,5.32,1111122 
SCCF RECON,ioos:station:SCCF:18:1,2013-11-09T07:00:00Z,26.6955,-81.8138,1.508,5.41,1111122 
SCCF RECON,ioos:station:SCCF:18:1,2013-11-09T08:00:00Z,26.6955,-81.8138,1.5,5.25,1111122 
SCCF RECON,ioos:station:SCCF:18:1,2013-11-09T09:00:00Z,26.6955,-81.8138,1.54,5.3,1111122 
SCCF RECON,ioos:station:SCCF:18:1,2013-11-09T10:00:00Z,26.6955,-81.8138,1.6,5.35,1111122 
SCCF RECON,ioos:station:SCCF:18:1,2013-11-09T11:00:00Z,26.6955,-81.8138,1.66,5.41,1111122 
SCCF RECON,ioos:station:SCCF:18:1,2013-11-09T12:00:00Z,26.6955,-81.8138,1.72,5.44,1111122 
SCCF RECON,ioos:station:SCCF:18:1,2013-11-09T13:00:00Z,26.6955,-81.8138,1.77,5.49,1111122 
SCCF RECON,ioos:station:SCCF:18:1,2013-11-09T14:00:00Z,26.6955,-81.8138,1.78,5.65,1111122 
SCCF RECON,ioos:station:SCCF:18:1,2013-11-09T15:00:00Z,26.6955,-81.8138,1.75,5.4,1111122 
SCCF RECON,ioos:station:SCCF:18:1,2013-11-09T16:00:00Z,26.6955,-81.8138,1.7,5.39,1111122 
SCCF RECON,ioos:station:SCCF:18:1,2013-11-09T17:00:00Z,26.6955,-81.8138,1.63,5.57,1111122 
SCCF RECON,ioos:station:SCCF:18:1,2013-11-09T18:00:00Z,26.6955,-81.8138,1.57,5.57,1111122 
SCCF RECON,ioos:station:SCCF:18:1,2013-11-09T19:00:00Z,26.6955,-81.8138,1.53,5.6,1111122 
SCCF RECON,ioos:station:SCCF:18:1,2013-11-09T20:00:00Z,26.6955,-81.8138,1.48,5.6,1111122 
SCCF RECON,ioos:station:SCCF:18:1,2013-11-09T21:00:00Z,26.6955,-81.8138,1.44,5.71,1111122 
SCCF RECON,ioos:station:SCCF:18:1,2013-11-09T22:00:00Z,26.6955,-81.8138,1.45,5.58,1111122 
SCCF RECON,ioos:station:SCCF:18:1,2013-11-09T23:00:00Z,26.6955,-81.8138,1.5,5.64,1111122 
SCCF RECON,ioos:station:SCCF:18:1,2013-11-10T00:00:00Z,26.6955,-81.8138,1.57,5.65,1111122 
SCCF RECON,ioos:station:SCCF:18:1,2013-11-10T01:00:00Z,26.6955,-81.8138,1.62,5.75,1111122 
SCCF RECON,ioos:station:SCCF:18:1,2013-11-10T02:00:00Z,26.6955,-81.8138,1.66,5.82,1111122 
SCCF RECON,ioos:station:SCCF:18:1,2013-11-10T03:00:00Z,26.6955,-81.8138,1.72,5.83,1111122 
SCCF RECON,ioos:station:SCCF:18:1,2013-11-10T04:00:00Z,26.6955,-81.8138,1.76,5.82,1111122 
SCCF RECON,ioos:station:SCCF:18:1,2013-11-10T05:00:00Z,26.6955,-81.8138,1.76,5.61,1111122 
SCCF RECON,ioos:station:SCCF:18:1,2013-11-10T06:00:00Z,26.6955,-81.8138,1.73,5.62,1111122 
SCCF RECON,ioos:station:SCCF:18:1,2013-11-10T07:00:00Z,26.6955,-81.8138,1.68,5.59,1111122 
SCCF RECON,ioos:station:SCCF:18:1,2013-11-10T08:00:00Z,26.6955,-81.8138,1.64,5.5,1111122 
SCCF RECON,ioos:station:SCCF:18:1,2013-11-10T09:00:00Z,26.6955,-81.8138,1.61,5.45,1111122 
SCCF RECON,ioos:station:SCCF:18:1,2013-11-10T10:00:00Z,26.6955,-81.8138,1.64,5.5,1111122 
SCCF RECON,ioos:station:SCCF:18:1,2013-11-10T11:00:00Z,26.6955,-81.8138,1.71,5.61,1111122 
SCCF RECON,ioos:station:SCCF:18:1,2013-11-10T12:00:00Z,26.6955,-81.8138,1.8,5.56,1111122 
SCCF RECON,ioos:station:SCCF:18:1,2013-11-10T13:00:00Z,26.6955,-81.8138,1.85,5.61,1111122 
SCCF RECON,ioos:station:SCCF:18:1,2013-11-10T14:00:00Z,26.6955,-81.8138,1.89,5.65,1111122 
SCCF RECON,ioos:station:SCCF:18:1,2013-11-10T15:00:00Z,26.6955,-81.8138,1.93,5.67,1111122 
SCCF RECON,ioos:station:SCCF:18:1,2013-11-10T16:00:00Z,26.6955,-81.8138,1.91,5.51,1111122 
SCCF RECON,ioos:station:SCCF:18:1,2013-11-10T17:00:00Z,26.6955,-81.8138,1.84,5.53,1111122 
SCCF RECON,ioos:station:SCCF:18:1,2013-11-10T18:00:00Z,26.6955,-81.8138,1.76,5.53,1111122 
SCCF RECON,ioos:station:SCCF:18:1,2013-11-10T19:00:00Z,26.6955,-81.8138,1.7,5.54,1111122 
SCCF RECON,ioos:station:SCCF:18:1,2013-11-10T20:00:00Z,26.6955,-81.8138,1.655,5.58,1111122 
SCCF RECON,ioos:station:SCCF:18:1,2013-11-10T21:00:00Z,26.6955,-81.8138,1.61,5.52,1111122 
SCCF RECON,ioos:station:SCCF:18:1,2013-11-10T22:00:00Z,26.6955,-81.8138,1.57,5.47,1111122 
SCCF RECON,ioos:station:SCCF:18:1,2013-11-10T23:00:00Z,26.6955,-81.8138,1.58,5.45,1111122 
SCCF RECON,ioos:station:SCCF:18:1,2013-11-11T00:00:00Z,26.6955,-81.8138,1.641,5.46,1111122 
SCCF RECON,ioos:station:SCCF:18:1,2013-11-11T01:00:00Z,26.6955,-81.8138,1.72,5.53,1111122 
SCCF RECON,ioos:station:SCCF:18:1,2013-11-11T02:00:00Z,26.6955,-81.8138,1.77,5.42,1111122 
SCCF RECON,ioos:station:SCCF:18:1,2013-11-11T03:00:00Z,26.6955,-81.8138,1.81,5.49,1111122 
SCCF RECON,ioos:station:SCCF:18:1,2013-11-11T04:00:00Z,26.6955,-81.8138,1.85,5.51,1111122 
SCCF RECON,ioos:station:SCCF:18:1,2013-11-11T05:00:00Z,26.6955,-81.8138,1.87,5.59,1111122 
SCCF RECON,ioos:station:SCCF:18:1,2013-11-11T06:00:00Z,26.6955,-81.8138,1.84,5.48,1111122 
SCCF RECON,ioos:station:SCCF:18:1,2013-11-11T07:00:00Z,26.6955,-81.8138,1.77,5.42,1111122 
SCCF RECON,ioos:station:SCCF:18:1,2013-11-11T08:00:00Z,26.6955,-81.8138,1.7,5.45,1111122 
SCCF RECON,ioos:station:SCCF:18:1,2013-11-11T09:00:00Z,26.6955,-81.8138,1.66,5.4,1111122 
SCCF RECON,ioos:station:SCCF:18:1,2013-11-11T10:00:00Z,26.6955,-81.8138,1.62,5.31,1111122 
SCCF RECON,ioos:station:SCCF:18:1,2013-11-11T11:00:00Z,26.6955,-81.8138,1.61,5.31,1111122 
SCCF RECON,ioos:station:SCCF:18:1,2013-11-11T12:00:00Z,26.6955,-81.8138,1.63,5.3,1111122 
SCCF RECON,ioos:station:SCCF:18:1,2013-11-11T13:00:00Z,26.6955,-81.8138,1.69,5.4,1111122 
SCCF RECON,ioos:station:SCCF:18:1,2013-11-11T14:00:00Z,26.6955,-81.8138,1.75,5.41,1111122 
SCCF RECON,ioos:station:SCCF:18:1,2013-11-11T15:00:00Z,26.6955,-81.8138,1.81,5.29,1111122 
SCCF RECON,ioos:station:SCCF:18:1,2013-11-11T16:00:00Z,26.6955,-81.8138,1.85,5.42,1111122 
SCCF RECON,ioos:station:SCCF:18:1,2013-11-11T17:00:00Z,26.6955,-81.8138,1.84,5.54,1111122 
SCCF RECON,ioos:station:SCCF:18:1,2013-11-11T18:00:00Z,26.6955,-81.8138,1.78,5.39,1111122 
SCCF RECON,ioos:station:SCCF:18:1,2013-11-11T19:00:00Z,26.6955,-81.8138,1.7,5.45,1111122 
SCCF RECON,ioos:station:SCCF:18:1,2013-11-11T20:00:00Z,26.6955,-81.8138,1.64,5.51,1111122 
SCCF RECON,ioos:station:SCCF:18:1,2013-11-11T21:00:00Z,26.6955,-81.8138,1.61,5.54,1111122 